KC7O Weather Reports


Display with metric or nautical units.
time (UTC)temp
F
wind
direction
speed
MPH
gust
MPH
rain 1hr
in
rain 24hr
in
rain mn
in
humidity
%
barometer
mb
20260506123355 49 49 0.0 0.0 0.00 0.00 0.00 89 1015.9
20260506122900 49 49 0.0 0.0 0.00 0.00 0.00 89 1015.8
20260506122404 49 49 0.0 0.0 0.00 0.00 0.00 89 1015.8
20260506121855 50 49 0.0 0.0 0.00 0.00 0.00 89 1015.8
20260506121420 50 49 0.0 0.0 0.00 0.00 0.00 89 1015.7
20260506120924 50 49 0.0 0.0 0.00 0.00 0.00 89 1015.6
20260506120403 50 49 0.0 0.0 0.00 0.00 0.00 89 1015.5
20260506115907 50 49 0.0 0.0 0.00 0.00 0.00 89 1015.5
20260506115411 50 49 0.0 0.0 0.00 0.00 0.00 89 1015.5
20260506114855 50 49 0.0 0.0 0.00 0.00 0.00 89 1015.5
20260506114401 50 49 0.0 0.0 0.00 0.00 0.00 89 1015.5
20260506113906 50 49 0.0 0.0 0.00 0.00 0.00 88 1015.5
20260506113350 50 49 0.0 0.0 0.00 0.00 0.00 88 1015.5
20260506112856 50 49 0.0 0.0 0.00 0.00 0.00 88 1015.5
20260506112402 50 49 0.0 0.0 0.00 0.00 0.00 87 1015.4
20260506111907 50 49 0.0 0.0 0.00 0.00 0.00 88 1015.4
20260506111356 50 49 0.0 0.0 0.00 0.00 0.00 87 1015.4
20260506110900 50 49 0.0 0.0 0.00 0.00 0.00 87 1015.5
20260506110405 50 49 0.0 0.0 0.00 0.00 0.00 87 1015.4
20260506105928 50 49 0.0 0.0 0.00 0.00 0.00 86 1015.4
20260506105354 51 49 0.0 0.0 0.00 0.00 0.00 86 1015.4
20260506104859 51 49 0.0 0.0 0.00 0.00 0.00 86 1015.4
20260506104426 51 49 0.0 0.0 0.00 0.00 0.00 86 1015.4
20260506103849 51 49 0.0 0.0 0.00 0.00 0.00 86 1015.4
20260506103356 51 49 0.0 0.0 0.00 0.00 0.00 85 1015.5
20260506102902 50 49 0.0 0.0 0.00 0.00 0.00 85 1015.5
20260506102348 51 49 0.0 0.0 0.00 0.00 0.00 85 1015.5
20260506101853 51 49 0.0 0.0 0.00 0.00 0.00 85 1015.5
20260506101400 51 49 0.0 0.0 0.00 0.00 0.00 85 1015.4
20260506100851 50 49 0.0 0.0 0.00 0.00 0.00 85 1015.4
20260506100355 50 49 0.0 0.0 0.00 0.00 0.00 85 1015.5
20260506095901 50 49 0.0 0.0 0.00 0.00 0.00 85 1015.5
20260506095426 50 49 0.0 0.0 0.00 0.00 0.00 85 1015.5
20260506094851 51 49 0.0 0.0 0.00 0.00 0.00 85 1015.5
20260506094357 51 49 0.0 0.0 0.00 0.00 0.00 84 1015.5
20260506093924 51 49 0.0 0.0 0.00 0.00 0.00 84 1015.5
20260506093349 51 49 0.0 0.0 0.00 0.00 0.00 84 1015.5
20260506092854 51 49 0.0 0.0 0.00 0.00 0.00 84 1015.5
20260506092401 51 49 0.0 0.0 0.00 0.00 0.00 84 1015.5
20260506091926 51 49 0.0 0.0 0.00 0.00 0.00 84 1015.5
20260506091352 51 91 0.0 0.0 0.00 0.00 0.00 84 1015.5
20260506090918 51 91 0.0 0.0 0.00 0.00 0.00 83 1015.7
20260506090402 51 91 0.0 0.0 0.00 0.00 0.00 83 1015.8
20260506085910 51 91 0.0 0.0 0.00 0.00 0.00 82 1015.8
20260506085355 52 91 0.0 0.0 0.00 0.00 0.00 82 1015.9
20260506084901 52 91 0.0 0.0 0.00 0.00 0.00 82 1015.9
20260506084348 52 91 0.0 0.0 0.00 0.00 0.00 82 1015.9
20260506083853 52 91 0.0 0.0 0.00 0.00 0.00 81 1016.0
20260506083358 53 91 0.0 0.0 0.00 0.00 0.00 81 1015.9
20260506082901 53 91 0.0 0.0 0.00 0.00 0.00 81 1016.0
20260506082427 53 92 0.0 0.0 0.00 0.00 0.00 81 1015.9
20260506081849 53 92 0.0 0.0 0.00 0.00 0.00 80 1016.0
20260506081354 53 94 0.0 0.0 0.00 0.00 0.00 80 1016.0
20260506080918 54 94 0.0 0.0 0.00 0.00 0.00 79 1016.0
20260506080359 54 94 0.0 0.0 0.00 0.00 0.00 78 1016.0
20260506073348 54 341 0.0 0.0 0.00 0.00 0.00 78 1016.1
20260506072852 54 341 0.0 1.0 0.00 0.00 0.00 78 1016.1
20260506072357 54 255 0.0 1.0 0.00 0.00 0.00 78 1016.1
20260506071900 54 255 0.0 0.0 0.00 0.00 0.00 78 1016.1
20260506071405 54 255 0.0 1.0 0.00 0.00 0.00 78 1016.0
20260506070851 54 255 0.0 1.0 0.00 0.00 0.00 79 1016.0
20260506070357 54 255 0.0 0.0 0.00 0.00 0.00 80 1015.9
20260506062402 54 255 0.0 0.0 0.00 0.00 0.00 79 1015.4
20260506061904 54 255 0.0 0.0 0.00 0.00 0.00 79 1015.4
20260506061422 54 255 0.0 0.0 0.00 0.00 0.00 79 1015.3
20260506060925 54 255 0.0 0.0 0.00 0.00 0.00 79 1015.3
20260506060354 54 255 0.0 0.0 0.00 0.00 0.00 79 1015.3
20260506051402 54 255 0.0 0.0 0.00 0.00 0.00 79 1015.1
20260506050905 54 255 0.0 0.0 0.00 0.00 0.00 79 1015.0
20260506050351 54 255 0.0 0.0 0.00 0.00 0.00 78 1015.0
20260506044847 54 255 0.0 0.0 0.00 0.00 0.00 79 1014.8
20260506044354 54 255 0.0 0.0 0.00 0.00 0.00 79 1014.8
20260506043858 54 255 0.0 0.0 0.00 0.00 0.00 79 1014.7
20260506043402 54 255 0.0 0.0 0.00 0.00 0.00 79 1014.7
20260506042906 54 255 0.0 0.0 0.00 0.00 0.00 78 1014.6
20260506042410 54 255 0.0 0.0 0.00 0.00 0.00 78 1014.5
20260506041851 55 255 0.0 0.0 0.00 0.00 0.00 78 1014.4
20260506041417 55 255 0.0 0.0 0.00 0.00 0.00 78 1014.3
20260506040921 55 255 0.0 0.0 0.00 0.00 0.00 77 1014.2
20260506040405 55 255 0.0 0.0 0.00 0.00 0.00 77 1014.2
20260506035852 55 255 0.0 0.0 0.00 0.00 0.00 77 1014.1
20260506035357 55 255 0.0 0.0 0.00 0.00 0.00 77 1014.0
20260506034902 55 255 0.0 0.0 0.00 0.00 0.00 76 1013.9
20260506034349 56 255 0.0 0.0 0.00 0.00 0.00 76 1013.9
20260506033853 56 255 0.0 0.0 0.00 0.00 0.00 76 1013.9
20260506033358 56 255 0.0 0.0 0.00 0.00 0.00 75 1013.9
20260506032905 57 255 0.0 0.0 0.00 0.00 0.00 75 1013.8
20260506032349 57 255 0.0 0.0 0.00 0.00 0.00 74 1013.7
20260506031855 57 255 0.0 0.0 0.00 0.00 0.00 74 1013.6
20260506031402 57 255 0.0 0.0 0.00 0.00 0.00 74 1013.5
20260506030850 57 255 0.0 0.0 0.00 0.00 0.00 74 1013.5
20260506030354 57 255 0.0 0.0 0.00 0.00 0.00 74 1013.5
20260506025900 57 255 0.0 0.0 0.00 0.00 0.00 73 1013.4
20260506025349 58 255 0.0 0.0 0.00 0.00 0.00 72 1013.2
20260506024854 58 255 0.0 0.0 0.00 0.00 0.00 71 1013.1
20260506024419 59 255 0.0 0.0 0.00 0.00 0.00 70 1013.0
20260506023922 59 255 0.0 0.0 0.00 0.00 0.00 69 1013.0
20260506023425 59 255 0.0 0.0 0.00 0.00 0.00 69 1012.9
20260506022858 60 255 0.0 0.0 0.00 0.00 0.00 68 1012.9
20260506022403 60 255 0.0 0.0 0.00 0.00 0.00 67 1012.8
20260506021907 60 255 0.0 2.0 0.00 0.00 0.00 67 1012.8
20260506021351 60 255 1.0 2.0 0.00 0.00 0.00 66 1012.6
20260506020919 61 256 0.0 2.0 0.00 0.00 0.00 65 1012.6
20260506020402 61 240 0.0 1.0 0.00 0.00 0.00 65 1012.6
20260506015848 61 248 0.0 1.0 0.00 0.00 0.00 64 1012.6
20260506015353 61 262 0.0 2.0 0.00 0.00 0.00 62 1012.6
20260506014859 61 236 0.0 2.0 0.00 0.00 0.00 61 1012.6
20260506013907 62 194 0.0 2.0 0.00 0.00 0.00 62 1012.5
20260506012850 62 252 1.0 3.0 0.00 0.00 0.00 61 1012.4
20260506012354 62 251 0.0 2.0 0.00 0.00 0.00 62 1012.4
20260506011902 62 264 1.0 2.0 0.00 0.00 0.00 62 1012.4
20260506011352 62 140 0.0 3.0 0.00 0.00 0.00 62 1012.4
20260506010857 62 280 1.0 3.0 0.00 0.00 0.00 61 1012.4
20260506010359 62 262 1.0 2.0 0.00 0.00 0.00 59 1012.4
20260506005924 63 250 1.0 3.0 0.00 0.00 0.00 57 1012.4
20260506005426 63 237 1.0 4.0 0.00 0.00 0.00 56 1012.4
20260506004853 63 259 1.0 4.0 0.00 0.00 0.00 56 1012.4
20260506004355 63 184 1.0 3.0 0.00 0.00 0.00 54 1012.4
20260506003900 63 245 1.0 3.0 0.00 0.00 0.00 55 1012.4
20260506003359 63 257 0.0 3.0 0.00 0.00 0.00 55 1012.4
20260506002904 63 258 1.0 3.0 0.00 0.00 0.00 54 1012.4
20260506002349 64 168 2.0 4.0 0.00 0.00 0.00 53 1012.4
20260506001855 64 236 1.0 4.0 0.00 0.00 0.00 55 1012.4
20260506001419 63 276 2.0 4.0 0.00 0.00 0.00 55 1012.3
20260506000848 63 148 1.0 2.0 0.00 0.00 0.00 58 1012.2
20260506000354 63 272 1.0 2.0 0.00 0.00 0.00 59 1012.2
20260505235358 63 265 1.0 3.0 0.00 0.00 0.00 59 1012.3
20260505234420 63 247 0.0 4.0 0.00 0.00 0.00 59 1012.3
20260505233903 63 262 1.0 4.0 0.00 0.00 0.00 59 1012.3
20260505232850 62 271 1.0 3.0 0.00 0.00 0.00 60 1012.3
20260505232356 62 266 0.0 0.0 0.00 0.00 0.00 60 1012.4
20260505231853 62 288 0.0 0.0 0.00 0.00 0.00 60 1012.4
20260505231359 62 258 0.0 0.0 0.00 0.00 0.00 58 1012.4
20260505230906 62 246 0.0 0.0 0.00 0.00 0.00 59 1012.4
20260505230354 62 245 0.0 0.0 0.00 0.00 0.00 59 1012.4
20260505225858 62 260 0.0 0.0 0.00 0.00 0.00 59 1012.5
20260505225404 62 274 0.0 0.0 0.00 0.00 0.00 60 1012.5
20260505224850 62 245 0.0 0.0 0.00 0.00 0.00 59 1012.5
20260505224355 62 275 0.0 1.0 0.00 0.00 0.00 59 1012.5
20260505223901 62 211 0.0 1.0 0.00 0.00 0.00 59 1012.5
20260505223406 62 242 0.0 2.0 0.00 0.00 0.00 59 1012.6
20260505222852 62 181 0.0 2.0 0.00 0.00 0.00 58 1012.7
20260505222417 62 141 1.0 2.0 0.00 0.00 0.00 58 1012.7
20260505221903 62 150 0.0 2.0 0.00 0.00 0.00 59 1012.7
20260505221428 62 256 0.0 2.0 0.00 0.00 0.00 59 1012.8
20260505220851 62 201 1.0 2.0 0.00 0.00 0.00 58 1012.8
20260505220414 62 234 0.0 2.0 0.00 0.00 0.00 59 1012.9
20260505215900 61 231 1.0 3.0 0.00 0.00 0.00 60 1012.9
20260505215410 61 256 0.0 3.0 0.00 0.00 0.00 61 1012.9
20260505214855 61 289 0.0 2.0 0.00 0.00 0.00 60 1012.9
20260505214400 62 281 0.0 2.0 0.00 0.00 0.00 60 1012.9
20260505213905 62 248 1.0 3.0 0.00 0.00 0.00 59 1012.9
20260505213351 62 174 0.0 2.0 0.00 0.00 0.00 60 1012.9
20260505212916 62 173 0.0 2.0 0.00 0.00 0.00 61 1012.9
20260505212420 62 169 1.0 2.0 0.00 0.00 0.00 60 1012.9
20260505211904 62 250 0.0 4.0 0.00 0.00 0.00 60 1012.9
20260505211350 62 161 1.0 4.0 0.00 0.00 0.00 61 1012.9
20260505210916 62 227 0.0 3.0 0.00 0.00 0.00 61 1012.9
20260505210357 62 153 0.0 2.0 0.00 0.00 0.00 62 1012.9
20260505205905 62 264 1.0 2.0 0.00 0.00 0.00 62 1012.9
20260505205349 62 181 0.0 2.0 0.00 0.00 0.00 63 1012.8
20260505204855 62 257 1.0 2.0 0.00 0.00 0.00 63 1012.8
20260505204403 62 224 1.0 2.0 0.00 0.00 0.00 63 1012.8
20260505203848 62 233 0.0 3.0 0.00 0.00 0.00 62 1012.7
20260505203352 62 261 0.0 4.0 0.00 0.00 0.00 63 1012.7
20260505202856 62 271 1.0 4.0 0.00 0.00 0.00 63 1012.7
20260505202403 63 240 1.0 3.0 0.00 0.00 0.00 62 1012.6
20260505201848 63 274 1.0 7.0 0.00 0.00 0.00 62 1012.6
20260505201353 64 275 3.0 7.0 0.00 0.00 0.00 60 1012.5
20260505200856 65 274 2.0 8.0 0.00 0.00 0.00 59 1012.5
20260505200422 65 159 1.0 8.0 0.00 0.00 0.00 59 1012.5
20260505195905 66 210 2.0 6.0 0.00 0.00 0.00 58 1012.5
20260505195348 66 164 2.0 6.0 0.00 0.00 0.00 58 1012.6
20260505194857 67 268 2.0 6.0 0.00 0.00 0.00 57 1012.7
20260505194402 67 150 0.0 5.0 0.00 0.00 0.00 60 1012.6
20260505193926 66 136 2.0 5.0 0.00 0.00 0.00 59 1012.7
20260505193347 65 253 2.0 5.0 0.00 0.00 0.00 60 1012.8
20260505192855 64 293 2.0 4.0 0.00 0.00 0.00 63 1012.8
20260505192359 64 251 3.0 5.0 0.00 0.00 0.00 61 1012.9
20260505191903 65 206 3.0 5.0 0.00 0.00 0.00 61 1012.9
20260505191349 65 135 2.0 7.0 0.00 0.00 0.00 58 1012.9
20260505190855 65 231 3.0 7.0 0.00 0.00 0.00 58 1012.9
20260505190358 65 195 2.0 5.0 0.00 0.00 0.00 57 1012.8
20260505185904 65 271 2.0 4.0 0.00 0.00 0.00 56 1012.8
20260505185353 66 169 1.0 6.0 0.00 0.00 0.00 55 1012.8
20260505184411 65 279 1.0 3.0 0.00 0.00 0.00 56 1012.8
20260505183854 65 267 1.0 5.0 0.00 0.00 0.00 55 1012.8
20260505183420 65 281 2.0 5.0 0.00 0.00 0.00 56 1012.8
20260505182847 64 231 1.0 3.0 0.00 0.00 0.00 58 1012.8
20260505182351 64 157 2.0 3.0 0.00 0.00 0.00 58 1012.8
20260505181855 64 205 1.0 4.0 0.00 0.00 0.00 59 1012.8
20260505181402 64 308 1.0 3.0 0.00 0.00 0.00 59 1012.8
20260505180906 64 217 1.0 2.0 0.00 0.00 0.00 62 1012.8
20260505180351 62 142 0.0 3.0 0.00 0.00 0.00 64 1012.8
20260505175855 62 224 0.0 3.0 0.00 0.00 0.00 65 1012.8
20260505175358 61 195 1.0 2.0 0.00 0.00 0.00 66 1012.8
20260505174902 61 154 0.0 3.0 0.00 0.00 0.00 68 1012.8
20260505174348 61 134 1.0 3.0 0.00 0.00 0.00 70 1012.7
20260505173853 61 171 1.0 3.0 0.00 0.00 0.00 70 1012.7
20260505173418 61 141 0.0 5.0 0.00 0.00 0.00 70 1012.6
20260505172847 61 148 1.0 5.0 0.00 0.00 0.00 70 1012.6
20260505172353 61 180 2.0 4.0 0.00 0.00 0.00 69 1012.6
20260505171859 61 173 0.0 3.0 0.00 0.00 0.00 70 1012.5
20260505171425 61 136 1.0 4.0 0.00 0.00 0.00 69 1012.5
20260505170927 62 158 1.0 4.0 0.00 0.00 0.00 69 1012.5
20260505170351 61 128 1.0 4.0 0.00 0.00 0.00 70 1012.4
20260505165855 61 204 1.0 6.0 0.00 0.00 0.00 69 1012.5
20260505165421 61 224 1.0 6.0 0.00 0.00 0.00 68 1012.4
20260505164905 61 140 1.0 5.0 0.00 0.00 0.00 68 1012.3
20260505164350 62 131 1.0 5.0 0.00 0.00 0.00 68 1012.3
20260505163352 62 171 1.0 4.0 0.00 0.00 0.00 67 1012.3
20260505162900 62 274 2.0 4.0 0.00 0.00 0.00 65 1012.3
20260505162351 62 263 2.0 4.0 0.00 0.00 0.00 67 1012.2
20260505161921 62 152 1.0 4.0 0.00 0.00 0.00 69 1012.3
20260505161405 62 147 1.0 3.0 0.00 0.00 0.00 70 1012.1
20260505160851 61 291 1.0 3.0 0.00 0.00 0.00 72 1012.1
20260505160358 61 146 0.0 6.0 0.00 0.00 0.00 71 1012.1
20260505153359 60 320 0.0 2.0 0.00 0.00 0.00 75 1012.1
20260505152850 60 247 0.0 2.0 0.00 0.00 0.00 77 1012.1
20260505152357 60 289 0.0 1.0 0.00 0.00 0.00 80 1012.1
20260505151851 59 138 0.0 0.0 0.00 0.00 0.00 82 1012.1
20260505151400 58 255 0.0 0.0 0.00 0.00 0.00 84 1012.1
20260505150847 58 39 0.0 0.0 0.00 0.00 0.00 86 1012.0
20260505150355 57 39 0.0 1.0 0.00 0.00 0.00 86 1011.9
20260505140403 52 149 0.0 0.0 0.00 0.00 0.00 95 1011.9
20260505124854 53 149 0.0 0.0 0.00 0.00 0.00 94 1011.5
20260505124421 53 149 0.0 0.0 0.00 0.00 0.00 94 1011.4
20260505123904 53 149 0.0 0.0 0.00 0.00 0.00 94 1011.4